Temp
11 12 13 12 13 13 13 14 14 13 13 13 13 13 13 13 13 13 13 13 12 12 12 13 13 12 12 12 12 12 12 12 12 12 12 12 12 12 13 13 12 12 13 13 13 13 12 12 12 12 12 12 12 12 12 12 12 12 12 11 12 12 12 12 12 12 12 12 11 11 11 11 11 11 11 11 10 10 10 10 10 11 10 10 10
11 11 12 12 12 12 12 13 13 13 13 13 13 13 13 13 13 13 13 13 13 13 12 12 12 12 12 12 12 12 12 12 12 12 12 12 12 12 12 12 12 12 12 12 12 12 12 12 12 12 12 12 12 12 12 12 12 12 12 12 12 12 12 12 12 12 12 12 12 12 12 12 12 11 11 11 10 10 10 10 10 10 10 10 10
11 11 11 12 12 12 12 12 12 12 12 13 13 13 13 13 13 13 13 14 14 13 12 12 12 12 12 12 11 11 11 11 12 12 12 12 12 12 12 12 12 12 12 12 12 12 12 12 12 12 12 12 12 12 12 12 12 12 12 12 12 12 12 12 12 12 12 12 12 12 12 12 12 11 11 10 10 10 10 10 10 10 10 10 10
11 11 11 11 11 11 12 12 12 12 12 13 13 13 13 13 13 13 13 14 14 13 12 12 12 11 12 11 11 12 11 11 11 12 12 12 12 12 12 12 12 12 12 12 12 12 12 12 12 12 12 12 12 12 12 12 12 12 12 12 12 12 12 12 12 12 12 12 12 12 12 12 11 11 11 10 10 10 10 10 10 10 10 10 10
11 11 11 11 11 12 12 12 12 12 12 12 12 12 12 13 13 13 13 14 14 12 12 12 12 11 12 12 12 12 11 11 11 11 12 12 12 12 12 12 12 12 12 12 12 12 12 12 12 11 11 12 12 12 12 12 12 12 12 12 12 13 12 12 12 12 12 12 12 12 12 12 11 11 11 11 10 10 10 10 10 10 10 10 10
11 11 12 12 12 12 13 13 13 13 12 12 12 12 12 12 12 13 13 13 13 12 12 12 12 12 12 11 11 11 11 11 11 11 11 12 12 12 12 12 12 12 12 12 12 12 12 11 11 11 11 12 12 12 12 12 12 12 13 13 13 13 13 13 12 12 12 12 12 12 12 12 12 11 11 11 11 10 10 10 11 11 11 11 11
11 11 12 12 12 12 12 12 13 13 13 13 12 12 12 12 12 12 12 12 12 12 12 12 12 12 11 11 11 11 11 11 11 11 12 12 12 12 12 12 12 12 12 12 12 12 12 11 11 11 11 12 12 12 12 13 13 13 13 13 13 13 13 13 13 12 12 12 12 12 12 12 12 11 11 11 11 11 11 11 11 11 11 11 11
11 11 12 12 13 12 12 12 12 13 13 12 12 13 12 12 12 12 11 12 12 12 12 12 12 11 11 11 11 11 11 11 11 11 12 12 12 12 12 12 12 12 12 11 11 11 11 11 11 11 11 12 12 12 12 12 13 13 13 13 13 13 13 13 12 12 12 12 12 12 12 12 12 12 11 11 11 11 11 11 11 11 11 11 11
11 11 12 12 12 12 12 12 12 12 12 12 12 12 12 12 12 12 11 11 12 12 12 12 12 11 11 11 11 11 11 11 11 11 12 12 12 12 12 12 12 12 12 11 11 11 11 11 11 11 11 12 12 12 12 12 12 12 12 13 12 12 12 12 12 12 12 12 12 12 12 12 12 12 12 12 12 12 11 11 11 11 11 11 11
11 11 11 11 12 12 12 12 12 12 12 12 11 11 11 11 12 11 11 11 12 12 12 11 11 11 11 11 11 11 11 11 11 12 12 12 12 12 12 12 12 12 12 12 11 11 11 11 11 11 11 11 12 12 12 12 12 12 12 12 12 12 12 12 12 12 12 12 12 12 11 11 11 11 11 11 11 11 11 11 11 11 11 11 11
10 10 10 10 11 11 12 12 12 12 12 12 11 11 11 11 11 11 11 11 11 11 11 11 11 11 11 11 11 11 11 11 11 12 12 12 12 12 12 12 12 12 12 12 11 11 11 11 11 11 11 11 11 11 12 12 12 12 12 12 12 12 12 12 12 12 12 12 11 11 11 11 11 11 11 11 11 11 11 11 11 11 11 10 11
9 9 10 10 10 11 11 12 12 12 11 11 11 11 11 11 11 11 11 11 11 11 11 11 11 11 11 11 11 11 11 11 11 12 12 12 12 12 12 12 12 12 12 11 11 11 11 11 11 11 12 11 11 11 11 11 11 11 11 11 11 11 11 11 11 11 11 11 11 11 11 11 11 10 10 10 10 10 10 10 10 10 10 10 10
9 9 10 10 10 10 11 11 11 11 11 11 11 11 11 11 11 11 11 11 11 11 11 12 11 11 11 11 11 11 11 11 12 12 12 12 12 12 12 12 12 12 11 11 11 11 11 11 11 11 11 11 11 11 11 11 11 11 11 11 11 11 11 11 11 11 11 11 11 11 11 11 10 10 10 10 10 10 10 10 10 10 10 10 10
9 9 9 10 10 10 10 10 11 11 11 11 11 10 10 11 11 11 11 11 11 11 11 12 12 11 11 11 11 11 11 11 11 12 11 11 12 12 12 11 11 11 11 11 11 11 11 11 11 11 11 11 11 11 11 11 11 11 11 11 11 11 11 11 11 11 11 10 10 10 10 10 10 10 10 9 9 9 9 9 9 9 9 9 9
9 9 9 9 9 10 10 10 10 10 11 11 10 10 10 11 11 11 11 11 11 11 11 11 12 12 11 11 11 11 11 11 11 11 11 11 11 11 11 11 11 11 11 11 11 11 11 11 11 11 11 11 11 11 11 11 11 11 11 10 10 10 10 10 10 10 10 10 10 10 10 10 9 9 9 9 9 9 8 9 9 8 8 8 8
8 8 9 9 9 9 9 10 10 10 10 10 10 11 11 11 11 11 11 11 11 11 11 11 11 12 11 11 12 11 11 11 11 11 11 11 11 11 11 11 11 11 11 11 11 11 11 11 11 11 11 11 11 11 11 11 11 11 10 10 10 10 10 10 9 9 9 9 9 9 9 9 9 9 9 9 8 8 8 8 8 8 8 8 8
8 8 8 8 8 8 9 9 10 10 10 10 11 11 10 11 11 10 10 11 11 11 11 11 11 11 11 11 11 11 11 11 11 11 11 11 11 11 11 11 11 10 10 10 10 10 11 10 10 10 11 11 11 11 11 10 10 10 10 10 10 9 9 9 9 9 9 9 9 9 8 8 9 9 9 8 8 8 8 8 8 8 7 7 8
8 8 8 8 8 8 8 8 9 9 9 9 10 10 10 10 10 10 10 10 10 10 10 10 10 10 10 10 10 10 10 10 10 10 10 10 11 11 11 11 11 11 10 10 11 10 10 10 10 10 10 10 10 10 10 10 10 10 10 9 9 9 9 9 9 9 9 9 9 8 8 8 8 8 8 8 8 8 8 8 8 7 7 7 7
7 8 8 8 8 8 8 8 8 8 8 8 8 9 10 10 10 10 9 9 10 10 9 10 10 10 10 9 9 10 10 9 9 10 10 10 10 10 10 11 11 11 10 10 11 10 10 10 10 10 10 10 10 10 10 10 10 10 9 9 9 9 9 9 9 9 8 8 8 8 8 8 8 8 8 8 8 8 7 7 7 7 7 7 7
7 7 7 8 8 8 8 8 8 8 8 7 8 8 9 9 9 9 9 9 9 9 9 9 9 9 9 9 9 9 9 9 9 9 9 9 9 9 10 10 10 10 10 10 10 10 10 10 10 10 10 10 10 9 9 9 9 9 9 9 9 9 8 8 8 8 8 8 8 8 8 8 8 8 8 8 8 8 7 7 7 7 7 7 6
6 7 7 7 8 8 8 8 8 8 8 8 8 8 9 9 9 9 9 9 9 9 9 9 10 9 9 9 8 8 8 8 9 9 9 9 9 9 9 9 9 10 10 10 10 10 10 10 9 9 9 9 9 8 8 8 8 8 8 8 8 8 8 8 8 8 8 8 8 8 8 8 8 8 8 8 7 7 7 6 6 6 6 6 6
6 6 6 7 7 7 7 7 8 8 8 8 8 8 8 9 9 9 9 9 9 9 9 9 9 9 9 9 8 8 8 8 9 9 9 9 9 9 8 8 9 9 9 9 9 9 9 9 9 9 8 8 8 7 7 7 7 8 8 8 8 8 8 8 8 8 8 8 8 8 8 8 8 8 8 7 7 6 6 5 5 5 5 5 5
6 6 6 6 6 7 7 7 7 7 7 7 8 8 8 8 9 9 8 8 8 8 8 8 8 8 8 8 8 8 8 8 8 8 8 8 8 8 8 8 8 8 9 9 8 8 8 8 8 8 7 7 7 7 7 7 8 8 8 8 8 8 8 8 8 8 8 8 8 8 7 7 7 7 6 6 5 5 5 4 4 4 5 4 4
6 6 6 6 6 6 6 7 7 7 7 7 7 7 7 7 8 8 8 8 8 8 8 8 8 8 8 8 8 7 7 8 7 7 7 7 7 7 7 7 8 8 8 8 8 7 7 7 7 7 7 7 7 7 8 8 8 8 8 8 8 7 7 7 7 7 7 7 7 7 7 6 6 6 6 5 5 4 4 4 4 4 4 3 3
6 6 6 6 6 6 6 6 6 6 6 7 7 7 7 7 7 7 7 7 7 7 7 7 7 7 7 7 7 7 7 7 7 7 7 7 7 7 7 7 7 7 7 7 7 7 7 7 7 7 7 8 8 8 7 7 7 7 7 7 7 6 6 6 6 6 6 6 6 6 5 6 6 5 5 5 4 3 3 3 3 3 3 3 3
6 6 6 5 5 6 6 6 6 6 6 6 6 6 6 6 6 6 6 6 6 6 6 6 6 6 6 6 6 6 6 6 6 6 6 6 6 6 6 7 7 7 7 7 7 7 7 7 7 7 7 7 7 7 7 6 6 6 6 6 6 5 5 5 5 5 5 5 5 5 5 5 5 4 4 3 2 2 2 2 2 2 2 2 2
5 5 5 5 5 5 5 5 5 6 6 6 6 5 5 5 5 5 5 5 5 5 5 5 5 5 5 5 5 5 5 5 5 5 6 6 6 6 6 6 6 6 6 6 6 7 7 7 7 7 7 7 6 6 6 6 6 5 5 5 5 4 4 4 4 4 4 4 4 4 4 4 3 3 3 2 1 1 1 1 1 1 2 2 2
4 4 4 4 5 5 5 5 5 5 5 5 5 5 5 5 5 5 5 4 4 4 5 5 5 5 5 5 5 5 5 5 5 5 5 5 5 6 6 6 6 6 6 6 6 6 6 6 6 6 6 6 5 5 5 5 5 4 4 4 4 4 4 4 3 3 3 3 3 3 3 2 2 2 2 1 1 0 0 1 1 1 1 1 1
3 3 3 4 4 4 4 4 4 4 4 4 5 5 4 4 4 5 4 4 4 4 4 4 4 4 4 4 4 4 4 4 4 5 5 5 5 5 6 6 6 6 6 6 6 6 6 6 5 5 5 5 4 4 4 4 4 4 3 3 3 3 3 3 3 2 2 2 2 2 2 2 1 1 1 1 1 1 0 1 1 1 1 1 1
3 3 3 3 3 3 3 3 3 3 3 4 4 4 4 4 4 4 4 4 4 4 4 4 4 4 4 4 4 4 4 4 4 5 5 5 5 5 5 5 5 5 5 5 4 4 4 4 4 4 4 4 4 4 4 3 3 3 3 3 3 3 2 2 2 2 2 1 1 1 1 1 1 1 1 1 1 0 0 0 0 0 0 0 0
2 2 2 3 3 3 3 3 3 3 3 3 3 3 3 3 3 3 3 3 3 4 4 4 4 4 4 4 4 4 4 4 4 4 4 5 5 4 4 4 4 4 4 3 3 3 3 3 4 3 3 3 3 3 3 3 3 3 3 3 2 2 2 2 1 1 1 1 0 0 0 0 0 0 0 0 -0 -0 -0 -0 -0 0 0 -0 -0
2 2 2 2 2 2 2 2 2 2 2 2 2 2 3 3 3 3 3 2 2 3 3 3 3 3 3 3 3 3 4 4 4 4 4 4 4 4 3 3 3 3 3 3 2 3 3 3 3 3 3 3 3 3 3 3 3 3 2 2 2 2 1 1 1 1 0 -0 -0 -0 -1 -1 -1 -0 -0 -1 -1 -1 -1 -0 -0 -0 -0 -0 -0
2 2 2 2 2 2 2 2 2 2 2 2 2 2 2 2 2 2 2 1 1 2 2 2 2 2 2 2 2 2 3 3 3 3 3 3 3 3 3 3 2 2 2 2 2 2 2 2 2 2 2 2 2 2 2 3 2 2 2 2 2 1 1 1 0 -0 -0 -1 -1 -1 -1 -1 -1 -1 -1 -1 -1 -1 -1 -0 -0 -1 -1 -1 -1
2 2 2 2 2 2 2 1 1 1 1 1 1 1 1 1 1 1 1 1 1 1 1 1 1 1 1 1 1 1 2 2 2 2 2 2 2 2 2 2 2 2 2 2 2 2 2 2 2 2 2 2 2 2 2 2 2 2 2 1 1 0 0 -0 -0 -1 -1 -1 -1 -1 -1 -1 -2 -2 -2 -1 -1 -1 -1 -1 -1 -1 -1 -1 -1
2 2 1 1 1 1 1 1 1 1 1 1 1 1 1 1 0 0 0 0 0 0 1 1 0 0 -0 0 -0 -0 0 0 0 0 1 1 1 1 1 1 1 2 2 2 2 2 2 2 2 2 2 2 2 2 2 2 1 1 1 0 -0 -1 -1 -1 -1 -1 -1 -1 -1 -1 -1 -1 -2 -2 -2 -2 -2 -2 -2 -2 -2 -2 -2 -2 -2
1 1 1 1 1 1 1 1 1 1 1 1 1 1 1 0 0 -0 -0 -0 -0 0 0 -0 -0 -0 -0 -0 -1 -1 -1 -0 -0 -0 -0 0 0 0 1 1 1 2 2 2 2 2 1 2 2 2 2 2 2 2 1 1 0 -0 -0 -1 -1 -1 -1 -1 -1 -1 -1 -1 -1 -1 -1 -2 -2 -2 -2 -2 -2 -2 -2 -2 -2 -2 -2 -2 -2
1 1 1 1 1 1 1 1 1 0 0 0 0 0 0 0 -0 -0 -0 -1 -1 -0 -0 -0 -1 -1 -1 -1 -1 -1 -1 -1 -1 -0 -0 -0 0 0 1 1 1 2 2 2 1 1 1 1 1 1 1 1 1 0 -0 -1 -1 -1 -1 -1 -1 -1 -1 -2 -2 -2 -2 -2 -2 -2 -2 -2 -2 -2 -2 -2 -2 -2 -3 -3 -3 -3 -3 -3 -3
1 1 1 1 1 0 0 0 0 0 0 0 -0 -0 -0 -0 -0 -1 -1 -1 -1 -1 -1 -1 -1 -1 -1 -1 -1 -1 -1 -1 -1 -0 -0 0 0 0 1 1 1 1 1 1 1 1 1 1 1 1 0 0 -0 -0 -1 -1 -1 -1 -2 -2 -2 -2 -2 -2 -2 -2 -2 -2 -2 -2 -3 -3 -2 -2 -2 -2 -2 -3 -3 -3 -3 -3 -3 -3 -3
0 0 0 0 0 0 0 0 -0 -0 -0 -0 -0 -0 -0 -1 -1 -1 -1 -1 -2 -2 -2 -2 -2 -2 -1 -1 -1 -1 -1 -1 -1 -1 -0 0 0 0 1 1 1 1 1 1 1 0 0 0 -0 -0 -0 -0 -0 -0 -0 -1 -2 -2 -3 -3 -3 -2 -2 -2 -2 -2 -2 -2 -2 -2 -3 -3 -3 -3 -3 -2 -2 -3 -3 -3 -3 -3 -3 -2 -2
-0 -0 -0 -0 -0 -0 -0 -0 -0 -0 -0 -0 -0 -0 -1 -1 -1 -1 -1 -2 -2 -2 -2 -2 -2 -2 -2 -2 -2 -2 -1 -1 -1 -1 -1 -0 -0 0 0 0 0 0 0 0 -0 -0 -0 -1 -1 -1 -1 -1 -1 -1 -1 -2 -2 -3 -3 -3 -3 -2 -2 -2 -2 -2 -2 -1 -1 -2 -2 -3 -3 -3 -3 -3 -3 -3 -3 -3 -3 -3 -3 -3 -3
-0 -0 -0 -0 -0 -0 -0 -0 -0 -0 -1 -1 -1 -1 -1 -1 -1 -1 -2 -2 -2 -2 -2 -2 -2 -2 -2 -2 -2 -2 -2 -1 -1 -1 -1 -1 -0 -0 -0 -0 -0 -0 -0 -1 -1 -1 -1 -1 -1 -1 -1 -1 -1 -1 -1 -2 -2 -2 -3 -2 -2 -2 -2 -2 -2 -2 -2 -2 -2 -2 -2 -3 -3 -3 -3 -3 -3 -3 -3 -3 -3 -3 -3 -3 -3
-0 -0 -0 -1 -1 -1 -1 -1 -1 -1 -1 -1 -1 -1 -1 -1 -1 -1 -2 -2 -2 -2 -2 -2 -2 -2 -2 -2 -2 -2 -2 -1 -1 -1 -1 -1 -1 -1 -1 -1 -1 -1 -1 -1 -1 -1 -1 -1 -1 -1 -2 -2 -1 -1 -2 -2 -2 -2 -2 -2 -2 -2 -2 -2 -2 -2 -2 -2 -2 -2 -2 -3 -3 -3 -3 -3 -3 -3 -3 -3 -3 -3 -3 -3 -3
-1 -1 -1 -1 -1 -1 -1 -1 -1 -1 -1 -1 -1 -1 -1 -1 -1 -1 -2 -2 -2 -2 -2 -2 -2 -2 -2 -2 -2 -2 -2 -1 -1 -1 -1 -1 -1 -1 -1 -1 -1 -1 -1 -1 -1 -2 -2 -2 -2 -2 -2 -2 -2 -2 -2 -2 -2 -2 -2 -1 -1 -1 -2 -2 -3 -3 -3 -3 -3 -3 -3 -3 -3 -3 -3 -3 -3 -3 -3 -3 -3 -3 -4 -4 -4
-1 -1 -1 -1 -1 -1 -1 -1 -1 -1 -1 -1 -1 -1 -1 -1 -1 -1 -1 -2 -2 -2 -2 -2 -2 -2 -2 -2 -2 -2 -2 -2 -1 -2 -2 -2 -2 -2 -2 -2 -2 -2 -2 -2 -2 -2 -2 -2 -2 -2 -2 -2 -2 -2 -2 -2 -2 -1 -1 -1 -1 -2 -2 -3 -3 -3 -3 -3 -3 -3 -3 -3 -3 -3 -3 -3 -3 -3 -4 -4 -4 -4 -4 -4 -4
-1 -1 -1 -1 -1 -1 -1 -1 -1 -1 -1 -1 -1 -1 -1 -1 -1 -1 -1 -2 -2 -2 -2 -2 -2 -2 -2 -2 -2 -2 -2 -2 -2 -2 -2 -2 -2 -2 -2 -2 -2 -2 -2 -2 -2 -2 -2 -2 -2 -2 -2 -2 -2 -2 -2 -1 -1 -2 -2 -2 -2 -2 -2 -2 -3 -3 -3 -3 -3 -3 -3 -3 -3 -3 -3 -3 -4 -4 -4 -4 -4 -4 -4 -4 -4
-1 -1 -1 -1 -1 -1 -1 -1 -1 -1 -1 -1 -1 -1 -1 -1 -1 -1 -1 -1 -2 -2 -2 -2 -2 -2 -2 -2 -2 -2 -2 -2 -2 -2 -2 -2 -2 -2 -2 -2 -2 -3 -3 -2 -2 -2 -2 -2 -2 -2 -2 -2 -2 -2 -1 -1 -1 -1 -2 -2 -2 -2 -2 -2 -3 -3 -3 -3 -3 -3 -3 -3 -3 -4 -4 -4 -4 -4 -4 -4 -4 -4 -4 -4 -4
-1 -1 -1 -1 -1 -1 -1 -1 -1 -1 -1 -1 -1 -1 -1 -1 -1 -1 -1 -1 -2 -2 -2 -2 -2 -2 -2 -2 -2 -2 -2 -2 -2 -2 -2 -2 -2 -2 -2 -2 -2 -3 -3 -2 -2 -2 -2 -2 -2 -2 -2 -2 -1 -1 -1 -1 -1 -1 -1 -2 -2 -2 -2 -2 -3 -3 -3 -3 -3 -3 -3 -3 -3 -4 -4 -4 -4 -4 -4 -4 -4 -4 -4 -4 -4
-1 -1 -1 -1 -1 -1 -1 -1 -1 -1 -1 -1 -1 -1 -1 -1 -1 -1 -1 -1 -1 -1 -2 -2 -2 -2 -2 -2 -2 -2 -2 -2 -2 -2 -3 -3 -3 -3 -3 -2 -2 -2 -2 -2 -2 -2 -2 -2 -2 -2 -2 -2 -1 -1 -1 -1 -1 -1 -1 -1 -1 -2 -2 -2 -2 -2 -3 -3 -3 -3 -3 -3 -3 -3 -4 -4 -4 -4 -4 -4 -4 -5 -5 -5 -5
-1 -1 -1 -1 -1 -1 -1 -1 -1 -1 -1 -1 -1 -1 -1 -1 -1 -1 -1 -1 -1 -1 -1 -1 -2 -2 -2 -2 -2 -2 -2 -2 -2 -2 -2 -3 -3 -3 -3 -3 -2 -2 -2 -2 -2 -2 -2 -2 -2 -2 -2 -1 -1 -1 -1 -1 -1 -1 -1 -1 -1 -1 -1 -1 -2 -2 -2 -2 -3 -3 -3 -3 -3 -3 -4 -4 -4 -4 -4 -4 -5 -5 -5 -5 -5
-1 -1 -1 -1 -1 -1 -1 -1 -1 -1 -1 -1 -1 -1 -1 -1 -1 -1 -1 -1 -1 -1 -1 -1 -1 -1 -2 -2 -2 -2 -2 -2 -2 -2 -2 -2 -3 -3 -3 -3 -2 -2 -2 -2 -2 -2 -2 -2 -2 -2 -2 -1 -1 -1 -1 -1 -1 -1 -1 -1 -1 -1 -1 -1 -1 -1 -1 -2 -2 -2 -2 -3 -3 -3 -4 -4 -4 -4 -5 -5 -5 -5 -5 -5 -5
-1 -1 -1 -1 -1 -1 -1 -1 -1 -1 -1 -1 -1 -1 -1 -1 -1 -1 -1 -1 -1 -1 -1 -1 -1 -1 -1 -2 -2 -2 -2 -2 -2 -2 -2 -2 -2 -2 -3 -3 -2 -2 -2 -2 -2 -3 -3 -2 -2 -2 -2 -2 -2 -1 -1 -1 -1 -1 -1 -1 -1 -0 -0 -0 -0 -1 -1 -1 -1 -1 -2 -2 -2 -3 -3 -4 -4 -4 -5 -5 -5 -5 -5 -5 -5
Height
1489 1489 1489 1490 1490 1491 1492 1492 1493 1495 1497 1499 1502 1504 1506 1507 1509 1510 1512 1514 1516 1518 1520 1522 1523 1525 1526 1528 1529 1530 1531 1532 1533 1534 1535 1536 1536 1537 1538 1539 1540 1541 1542 1543 1544 1545 1546 1547 1548 1549 1550 1551 1552 1552 1553 1554 1556 1557 1559 1560 1561 1562 1563 1564 1565 1566 1567 1567 1568 1568 1568 1568 1568 1569 1569 1569 1570 1571 1571 1572 1573 1573 1574 1574 1575
1487 1486 1487 1488 1490 1490 1491 1492 1493 1495 1496 1498 1501 1503 1505 1507 1509 1510 1512 1514 1516 1519 1521 1522 1524 1525 1526 1528 1529 1530 1532 1533 1534 1535 1535 1536 1536 1537 1538 1539 1540 1541 1542 1543 1544 1544 1546 1547 1547 1548 1549 1550 1551 1552 1553 1554 1555 1557 1559 1560 1561 1562 1563 1564 1565 1566 1567 1567 1568 1568 1568 1568 1568 1569 1569 1569 1570 1571 1571 1572 1572 1573 1573 1574 1574
1487 1486 1486 1487 1488 1489 1490 1492 1494 1495 1496 1498 1500 1502 1504 1507 1508 1510 1512 1513 1515 1519 1522 1523 1524 1525 1526 1528 1529 1530 1532 1533 1534 1535 1535 1536 1536 1537 1538 1539 1540 1541 1542 1543 1543 1544 1545 1546 1547 1548 1549 1549 1551 1552 1553 1554 1555 1557 1559 1560 1561 1562 1563 1564 1565 1566 1567 1567 1568 1568 1568 1568 1568 1569 1569 1569 1569 1570 1570 1571 1572 1572 1573 1573 1574
1488 1487 1487 1487 1488 1489 1491 1494 1496 1497 1497 1498 1500 1502 1504 1506 1509 1510 1512 1513 1515 1518 1521 1523 1524 1525 1526 1527 1528 1530 1531 1532 1534 1535 1536 1536 1537 1537 1538 1539 1540 1541 1542 1543 1543 1544 1545 1546 1547 1548 1548 1549 1550 1552 1553 1554 1555 1556 1558 1559 1561 1562 1563 1564 1565 1566 1566 1567 1567 1568 1568 1568 1568 1568 1569 1568 1569 1569 1570 1570 1571 1571 1572 1572 1573
1490 1489 1488 1489 1490 1492 1494 1496 1497 1498 1498 1499 1500 1502 1503 1506 1509 1510 1512 1514 1515 1517 1521 1523 1524 1524 1525 1526 1527 1529 1531 1532 1534 1535 1536 1537 1537 1538 1538 1539 1540 1541 1542 1543 1543 1544 1545 1546 1547 1547 1548 1549 1550 1551 1552 1554 1555 1556 1558 1559 1560 1561 1562 1563 1564 1565 1566 1566 1567 1567 1568 1568 1568 1568 1568 1568 1568 1568 1569 1569 1569 1570 1570 1571 1572
1492 1491 1490 1490 1492 1494 1495 1495 1496 1497 1499 1499 1500 1502 1504 1507 1509 1511 1512 1513 1515 1517 1520 1521 1522 1523 1524 1525 1527 1529 1531 1532 1534 1535 1536 1537 1538 1538 1539 1540 1541 1541 1542 1542 1543 1543 1545 1546 1547 1547 1548 1549 1551 1552 1553 1554 1555 1556 1557 1559 1559 1560 1561 1563 1564 1564 1565 1566 1566 1567 1567 1567 1567 1567 1567 1567 1568 1568 1568 1568 1569 1569 1569 1570 1570
1493 1492 1490 1490 1491 1493 1494 1495 1496 1497 1499 1499 1501 1504 1506 1508 1510 1511 1512 1514 1515 1518 1520 1521 1521 1522 1523 1525 1527 1529 1531 1532 1534 1535 1536 1537 1538 1539 1539 1540 1541 1541 1542 1542 1542 1543 1544 1546 1546 1547 1549 1550 1551 1553 1554 1555 1555 1556 1557 1558 1559 1560 1561 1562 1563 1564 1564 1565 1566 1566 1566 1566 1566 1566 1566 1567 1567 1567 1567 1567 1568 1568 1569 1569 1569
1492 1491 1490 1490 1491 1492 1493 1494 1496 1497 1498 1499 1500 1503 1505 1508 1510 1512 1513 1515 1517 1518 1519 1520 1520 1521 1523 1524 1526 1528 1530 1532 1534 1535 1536 1537 1538 1538 1539 1540 1541 1541 1542 1542 1543 1543 1544 1546 1547 1548 1550 1551 1552 1553 1554 1555 1555 1556 1556 1557 1558 1559 1560 1561 1562 1562 1563 1564 1564 1565 1566 1565 1565 1565 1565 1566 1566 1566 1566 1567 1567 1567 1568 1568 1568
1491 1490 1490 1489 1491 1492 1492 1493 1495 1496 1498 1498 1500 1502 1504 1507 1510 1512 1514 1516 1518 1519 1519 1519 1520 1521 1522 1524 1526 1528 1530 1532 1534 1535 1535 1536 1537 1538 1539 1540 1541 1542 1542 1542 1543 1544 1545 1546 1547 1549 1550 1552 1553 1554 1554 1555 1555 1556 1556 1557 1558 1558 1559 1560 1560 1561 1562 1562 1563 1564 1564 1564 1564 1564 1564 1564 1565 1565 1566 1566 1566 1566 1567 1566 1566
1491 1490 1489 1489 1490 1491 1491 1492 1493 1495 1496 1498 1499 1502 1504 1507 1509 1512 1515 1517 1518 1519 1519 1520 1520 1521 1522 1524 1526 1528 1530 1532 1533 1534 1535 1536 1537 1538 1539 1540 1541 1542 1543 1543 1544 1545 1546 1547 1548 1549 1551 1552 1553 1554 1555 1555 1556 1556 1557 1557 1558 1558 1559 1559 1560 1560 1560 1561 1561 1562 1562 1562 1563 1563 1563 1564 1564 1564 1564 1564 1564 1565 1565 1564 1564
1491 1490 1489 1489 1489 1490 1491 1492 1492 1494 1496 1499 1501 1502 1504 1507 1509 1511 1514 1516 1517 1518 1519 1520 1520 1521 1523 1524 1526 1528 1530 1532 1533 1534 1535 1536 1538 1539 1539 1541 1542 1543 1543 1544 1545 1546 1547 1548 1549 1550 1551 1552 1553 1554 1554 1555 1555 1556 1556 1557 1557 1558 1558 1558 1559 1559 1560 1560 1560 1560 1560 1560 1561 1561 1562 1562 1563 1563 1563 1563 1563 1563 1563 1562 1561
1493 1491 1490 1490 1489 1490 1490 1492 1493 1494 1496 1499 1501 1503 1505 1506 1508 1510 1512 1515 1516 1518 1519 1520 1521 1522 1523 1525 1527 1529 1531 1532 1533 1534 1535 1537 1538 1539 1540 1541 1542 1543 1544 1544 1545 1546 1547 1548 1549 1550 1551 1552 1552 1553 1554 1555 1555 1555 1556 1556 1556 1557 1557 1557 1558 1558 1559 1559 1559 1559 1559 1559 1559 1559 1560 1560 1560 1561 1561 1561 1561 1561 1561 1560 1559
1495 1493 1492 1491 1491 1490 1490 1492 1493 1495 1496 1499 1501 1503 1504 1506 1508 1510 1512 1513 1515 1517 1519 1520 1521 1522 1524 1525 1527 1529 1531 1532 1533 1535 1536 1537 1538 1539 1540 1541 1542 1542 1543 1544 1545 1546 1547 1548 1549 1551 1551 1552 1552 1553 1553 1554 1554 1555 1555 1555 1555 1556 1556 1556 1557 1557 1558 1558 1558 1558 1558 1558 1558 1558 1557 1557 1558 1558 1558 1558 1558 1558 1558 1558 1557
1496 1495 1494 1493 1492 1491 1491 1492 1493 1495 1497 1498 1501 1502 1503 1505 1507 1509 1511 1513 1515 1517 1518 1519 1521 1522 1524 1526 1527 1529 1531 1532 1534 1535 1536 1537 1538 1539 1540 1541 1541 1542 1543 1544 1546 1546 1547 1548 1550 1551 1552 1552 1552 1553 1553 1554 1554 1554 1554 1554 1554 1555 1555 1555 1555 1556 1556 1556 1557 1557 1556 1556 1557 1556 1556 1556 1556 1556 1556 1556 1556 1556 1555 1555 1555
1498 1497 1496 1495 1494 1493 1492 1493 1494 1496 1497 1498 1500 1502 1503 1505 1506 1508 1510 1512 1515 1517 1518 1519 1521 1522 1524 1525 1527 1529 1530 1532 1533 1535 1536 1537 1538 1539 1540 1541 1542 1543 1543 1544 1546 1547 1548 1548 1549 1550 1551 1552 1552 1553 1553 1553 1553 1553 1553 1553 1553 1554 1554 1554 1554 1554 1555 1555 1555 1555 1555 1554 1555 1554 1554 1554 1554 1554 1554 1554 1554 1553 1553 1553 1553
1500 1499 1498 1497 1496 1495 1495 1495 1496 1497 1498 1499 1501 1503 1504 1505 1506 1507 1508 1511 1514 1516 1518 1519 1520 1522 1523 1525 1526 1528 1530 1531 1533 1534 1536 1537 1538 1539 1540 1541 1542 1543 1544 1544 1546 1547 1548 1548 1549 1550 1551 1551 1552 1552 1552 1552 1552 1552 1552 1553 1553 1553 1553 1553 1553 1553 1553 1553 1553 1553 1553 1553 1553 1552 1552 1552 1552 1552 1552 1552 1552 1552 1551 1551 1551
1502 1501 1501 1500 1499 1498 1497 1497 1498 1499 1499 1500 1502 1503 1504 1505 1506 1508 1509 1510 1513 1515 1517 1519 1520 1522 1523 1525 1526 1528 1529 1531 1533 1534 1536 1537 1537 1538 1539 1540 1541 1542 1543 1544 1545 1546 1547 1548 1549 1549 1550 1550 1550 1551 1551 1551 1551 1551 1551 1551 1552 1552 1552 1552 1552 1552 1552 1552 1551 1551 1551 1551 1551 1551 1550 1550 1550 1549 1549 1550 1550 1550 1549 1549 1548
1505 1504 1503 1503 1502 1502 1501 1500 1500 1500 1501 1501 1502 1503 1505 1506 1507 1510 1511 1511 1513 1515 1517 1518 1520 1522 1524 1525 1527 1528 1529 1531 1533 1534 1535 1536 1537 1537 1538 1539 1539 1541 1543 1544 1544 1545 1546 1547 1548 1548 1548 1549 1549 1549 1550 1550 1549 1550 1550 1550 1550 1550 1551 1550 1550 1550 1550 1550 1550 1550 1549 1549 1549 1549 1549 1548 1548 1547 1548 1548 1548 1547 1547 1547 1546
1508 1507 1507 1506 1506 1505 1505 1504 1504 1503 1504 1504 1503 1504 1506 1508 1510 1512 1513 1513 1515 1517 1518 1518 1519 1522 1524 1526 1528 1529 1531 1532 1533 1533 1534 1535 1535 1536 1536 1537 1538 1540 1541 1543 1543 1544 1545 1546 1547 1547 1547 1547 1547 1547 1548 1548 1548 1548 1548 1548 1549 1549 1549 1549 1549 1549 1548 1548 1548 1548 1548 1548 1548 1548 1547 1546 1546 1546 1546 1546 1546 1545 1545 1545 1544
1512 1511 1510 1509 1509 1509 1508 1508 1508 1507 1507 1508 1507 1507 1508 1510 1512 1514 1515 1517 1517 1518 1520 1520 1521 1522 1525 1527 1528 1529 1531 1533 1533 1533 1534 1534 1535 1535 1536 1537 1538 1539 1540 1541 1542 1543 1543 1544 1545 1545 1545 1545 1545 1545 1546 1546 1546 1546 1546 1547 1547 1547 1547 1547 1547 1547 1547 1546 1546 1546 1546 1546 1546 1546 1546 1545 1544 1544 1544 1544 1544 1544 1544 1544 1543
1515 1514 1513 1512 1512 1511 1511 1511 1510 1510 1510 1511 1510 1510 1511 1512 1514 1515 1517 1519 1519 1519 1521 1523 1523 1524 1526 1527 1528 1530 1531 1532 1533 1534 1534 1535 1535 1535 1536 1537 1538 1538 1539 1540 1541 1541 1542 1543 1543 1543 1543 1543 1544 1544 1545 1545 1545 1545 1545 1545 1546 1546 1546 1546 1546 1545 1545 1545 1545 1544 1544 1544 1544 1544 1544 1543 1543 1542 1542 1542 1542 1542 1542 1542 1542
1518 1517 1516 1515 1514 1514 1513 1513 1513 1512 1512 1512 1512 1512 1512 1513 1514 1516 1518 1520 1520 1521 1522 1524 1525 1525 1527 1528 1529 1530 1530 1531 1533 1534 1535 1535 1535 1535 1536 1537 1538 1538 1538 1539 1540 1540 1541 1541 1542 1542 1542 1542 1543 1543 1544 1544 1544 1544 1544 1544 1545 1545 1545 1544 1544 1544 1543 1543 1543 1542 1542 1542 1541 1541 1541 1541 1541 1541 1541 1540 1540 1540 1540 1540 1540
1521 1520 1518 1518 1517 1516 1516 1515 1515 1514 1514 1513 1513 1514 1514 1514 1515 1516 1518 1520 1521 1522 1523 1524 1525 1525 1526 1528 1529 1529 1530 1532 1533 1534 1535 1535 1535 1535 1536 1537 1537 1538 1538 1538 1539 1539 1540 1540 1540 1541 1541 1542 1542 1543 1543 1543 1543 1543 1543 1543 1543 1543 1543 1542 1542 1542 1541 1541 1541 1540 1540 1539 1539 1539 1539 1539 1539 1539 1539 1539 1539 1539 1538 1538 1538
1523 1522 1521 1520 1519 1519 1518 1517 1517 1516 1516 1515 1515 1515 1515 1515 1516 1517 1519 1521 1522 1523 1523 1524 1525 1525 1526 1527 1529 1530 1531 1532 1533 1534 1534 1534 1535 1535 1536 1536 1537 1537 1537 1537 1537 1538 1538 1539 1539 1540 1540 1541 1541 1542 1542 1542 1542 1542 1542 1542 1542 1542 1541 1541 1540 1540 1539 1539 1539 1538 1538 1537 1537 1537 1536 1536 1536 1536 1537 1537 1537 1537 1537 1536 1536
1525 1524 1524 1523 1522 1522 1521 1521 1520 1519 1519 1518 1518 1518 1518 1519 1519 1519 1521 1522 1522 1523 1524 1525 1525 1526 1527 1527 1529 1530 1531 1531 1532 1533 1533 1534 1535 1535 1536 1536 1536 1536 1536 1537 1537 1538 1538 1538 1538 1539 1539 1540 1540 1540 1541 1541 1541 1541 1541 1541 1541 1540 1540 1540 1539 1539 1538 1537 1537 1536 1536 1535 1535 1535 1535 1535 1535 1535 1535 1535 1535 1536 1535 1535 1535
1527 1527 1526 1525 1525 1524 1524 1523 1523 1523 1522 1522 1522 1522 1522 1522 1522 1523 1524 1524 1524 1525 1525 1526 1527 1527 1528 1529 1529 1531 1532 1532 1533 1533 1533 1534 1534 1535 1535 1536 1536 1536 1536 1537 1537 1537 1538 1538 1538 1538 1538 1539 1539 1539 1540 1540 1540 1540 1540 1540 1540 1539 1539 1539 1538 1537 1537 1536 1536 1535 1535 1534 1534 1533 1533 1533 1533 1534 1534 1534 1535 1535 1535 1535 1534
1529 1529 1529 1528 1528 1527 1527 1526 1526 1526 1525 1525 1525 1525 1526 1526 1526 1526 1526 1527 1527 1527 1527 1528 1528 1529 1530 1530 1531 1532 1533 1533 1533 1533 1533 1534 1535 1535 1535 1536 1536 1536 1536 1537 1537 1537 1537 1537 1537 1538 1538 1538 1539 1539 1539 1540 1540 1540 1540 1540 1539 1539 1538 1538 1537 1537 1536 1536 1535 1535 1534 1534 1533 1533 1533 1533 1533 1533 1533 1534 1534 1534 1534 1534 1534
1532 1532 1532 1531 1531 1530 1530 1529 1529 1529 1528 1528 1528 1528 1528 1529 1529 1529 1529 1529 1530 1530 1530 1530 1530 1531 1531 1532 1532 1533 1533 1533 1534 1534 1534 1534 1535 1535 1535 1535 1536 1536 1536 1536 1536 1537 1537 1537 1537 1537 1538 1538 1539 1539 1539 1539 1540 1540 1539 1539 1538 1538 1538 1537 1537 1536 1536 1535 1535 1534 1534 1533 1533 1533 1533 1533 1533 1533 1533 1533 1533 1533 1533 1533 1533
1535 1534 1534 1534 1533 1533 1532 1532 1532 1531 1531 1531 1531 1531 1531 1531 1531 1531 1531 1531 1531 1532 1532 1531 1531 1532 1532 1533 1533 1533 1533 1533 1534 1534 1534 1534 1534 1535 1535 1535 1535 1535 1536 1536 1536 1536 1537 1537 1537 1537 1538 1538 1539 1539 1539 1539 1539 1539 1539 1539 1538 1538 1538 1537 1537 1536 1536 1535 1535 1534 1534 1534 1534 1533 1533 1533 1533 1533 1533 1533 1533 1532 1532 1532 1532
1537 1537 1537 1536 1536 1536 1535 1535 1534 1534 1533 1533 1533 1533 1533 1533 1533 1533 1533 1533 1533 1533 1533 1533 1533 1533 1533 1533 1533 1534 1534 1534 1534 1533 1534 1534 1534 1534 1534 1535 1535 1535 1535 1536 1536 1536 1536 1537 1537 1537 1537 1538 1538 1538 1538 1539 1539 1539 1539 1538 1538 1538 1537 1537 1536 1536 1535 1535 1534 1534 1534 1534 1534 1533 1533 1533 1533 1532 1532 1532 1532 1532 1532 1532 1531
1538 1538 1538 1538 1538 1538 1538 1538 1537 1537 1536 1536 1536 1536 1536 1535 1535 1535 1534 1534 1535 1535 1535 1534 1534 1534 1534 1534 1534 1534 1534 1534 1534 1534 1534 1534 1534 1534 1534 1534 1535 1535 1535 1535 1536 1536 1536 1536 1537 1537 1537 1537 1537 1538 1538 1538 1538 1538 1538 1538 1537 1537 1536 1536 1536 1535 1535 1534 1534 1534 1534 1534 1533 1533 1533 1532 1532 1532 1532 1532 1532 1532 1532 1531 1531
1539 1539 1540 1540 1540 1540 1540 1540 1540 1539 1539 1539 1539 1538 1538 1537 1537 1536 1536 1536 1536 1536 1535 1535 1534 1534 1533 1533 1533 1533 1534 1534 1534 1533 1533 1534 1534 1534 1534 1535 1535 1535 1535 1535 1536 1536 1536 1536 1536 1536 1536 1537 1537 1537 1537 1537 1537 1537 1537 1536 1536 1536 1535 1535 1535 1535 1534 1534 1534 1534 1533 1533 1533 1532 1532 1532 1532 1532 1532 1532 1532 1532 1531 1531 1530
1541 1541 1541 1541 1541 1541 1542 1542 1542 1541 1541 1541 1541 1540 1540 1539 1538 1538 1538 1537 1537 1536 1536 1535 1535 1534 1534 1533 1533 1533 1533 1533 1533 1533 1533 1534 1534 1535 1535 1535 1536 1536 1536 1535 1535 1535 1535 1535 1535 1535 1535 1535 1535 1536 1536 1536 1536 1536 1535 1535 1535 1535 1535 1535 1534 1534 1534 1534 1533 1533 1533 1533 1532 1532 1532 1532 1532 1532 1532 1532 1532 1531 1531 1530 1530
1542 1542 1542 1542 1542 1542 1543 1543 1543 1543 1542 1542 1542 1542 1541 1541 1540 1540 1539 1539 1538 1538 1537 1536 1536 1535 1535 1534 1533 1533 1533 1533 1533 1534 1534 1534 1535 1535 1536 1536 1536 1536 1535 1535 1534 1534 1534 1534 1534 1534 1534 1534 1534 1535 1535 1535 1535 1535 1535 1535 1534 1534 1534 1534 1534 1534 1534 1533 1533 1533 1533 1532 1532 1532 1532 1532 1532 1532 1532 1532 1531 1531 1531 1530 1530
1543 1543 1543 1543 1543 1543 1544 1544 1544 1544 1544 1543 1543 1543 1542 1542 1541 1541 1540 1540 1539 1539 1538 1537 1537 1536 1536 1535 1534 1534 1534 1534 1534 1535 1535 1535 1536 1536 1536 1536 1536 1535 1535 1534 1534 1533 1533 1533 1533 1533 1534 1534 1534 1535 1535 1535 1535 1535 1534 1534 1534 1534 1534 1534 1534 1534 1534 1534 1533 1533 1533 1533 1532 1532 1533 1533 1532 1532 1532 1532 1531 1531 1530 1530 1530
1545 1545 1545 1545 1544 1544 1545 1545 1545 1545 1545 1544 1544 1544 1543 1543 1542 1542 1541 1541 1540 1539 1538 1537 1537 1537 1537 1536 1536 1535 1535 1535 1535 1535 1536 1536 1536 1536 1536 1536 1536 1536 1535 1534 1534 1534 1534 1534 1534 1534 1535 1535 1535 1535 1535 1535 1535 1534 1534 1534 1534 1534 1534 1534 1534 1534 1534 1534 1534 1533 1533 1533 1533 1533 1533 1533 1533 1532 1532 1532 1531 1531 1531 1531 1531
1546 1546 1546 1546 1546 1546 1546 1546 1546 1546 1545 1545 1545 1545 1545 1544 1543 1543 1542 1541 1540 1539 1538 1538 1537 1537 1537 1537 1537 1536 1536 1536 1536 1536 1536 1536 1536 1536 1536 1536 1536 1536 1536 1535 1535 1535 1535 1535 1535 1536 1536 1536 1535 1535 1535 1535 1534 1534 1534 1534 1534 1534 1534 1534 1534 1534 1534 1534 1534 1534 1534 1533 1533 1533 1533 1533 1533 1532 1532 1532 1532 1532 1532 1532 1532
1547 1547 1547 1547 1547 1547 1547 1547 1547 1546 1546 1546 1546 1546 1545 1545 1544 1543 1542 1541 1540 1540 1539 1539 1538 1538 1538 1538 1537 1536 1536 1536 1536 1536 1536 1536 1537 1537 1537 1537 1537 1537 1537 1537 1537 1537 1537 1537 1537 1536 1536 1535 1535 1535 1535 1535 1535 1534 1534 1534 1534 1534 1534 1534 1534 1534 1534 1534 1534 1534 1534 1534 1533 1533 1533 1533 1533 1533 1533 1533 1533 1533 1533 1533 1533
1549 1549 1549 1549 1549 1548 1548 1548 1548 1547 1547 1547 1547 1547 1546 1546 1545 1544 1543 1542 1541 1541 1540 1540 1540 1540 1539 1538 1538 1537 1536 1536 1536 1536 1536 1536 1537 1537 1537 1537 1538 1538 1538 1538 1538 1538 1538 1538 1537 1537 1536 1536 1536 1536 1536 1535 1535 1535 1535 1534 1534 1535 1535 1535 1535 1535 1535 1534 1534 1534 1534 1534 1534 1534 1535 1534 1534 1534 1534 1534 1535 1535 1534 1534 1534
1550 1550 1550 1550 1550 1550 1549 1549 1549 1548 1548 1548 1548 1548 1547 1547 1546 1545 1544 1543 1543 1542 1542 1542 1541 1541 1540 1539 1539 1538 1537 1536 1536 1536 1537 1537 1538 1538 1538 1539 1539 1539 1539 1539 1539 1539 1539 1538 1538 1537 1537 1537 1537 1536 1536 1536 1535 1535 1535 1535 1535 1535 1535 1535 1535 1535 1535 1535 1535 1535 1535 1535 1535 1535 1535 1535 1535 1535 1535 1536 1536 1535 1535 1535 1534
1551 1551 1551 1551 1551 1551 1551 1550 1550 1549 1549 1549 1549 1548 1548 1548 1547 1546 1545 1544 1544 1544 1543 1543 1543 1542 1541 1541 1540 1540 1539 1538 1538 1538 1538 1539 1539 1540 1540 1540 1540 1540 1540 1540 1540 1540 1540 1539 1539 1538 1538 1538 1537 1537 1536 1536 1536 1536 1536 1536 1536 1536 1536 1536 1536 1536 1536 1536 1536 1536 1536 1536 1536 1536 1536 1536 1536 1536 1536 1536 1536 1536 1536 1535 1535
1552 1552 1552 1552 1552 1552 1551 1551 1550 1550 1550 1549 1549 1549 1549 1548 1548 1547 1546 1545 1544 1544 1544 1544 1544 1543 1543 1542 1541 1541 1541 1540 1540 1540 1540 1541 1541 1541 1541 1541 1542 1542 1542 1541 1541 1540 1540 1539 1539 1539 1538 1538 1538 1537 1537 1537 1536 1536 1536 1536 1536 1536 1536 1536 1536 1536 1537 1537 1537 1537 1537 1537 1537 1537 1537 1537 1537 1537 1537 1537 1537 1536 1536 1536 1535
1552 1552 1552 1553 1553 1552 1552 1551 1551 1550 1550 1550 1550 1550 1549 1549 1548 1548 1547 1546 1545 1545 1545 1545 1545 1544 1544 1543 1543 1542 1542 1542 1542 1542 1542 1542 1543 1543 1543 1543 1542 1542 1542 1541 1541 1540 1540 1540 1540 1539 1539 1539 1538 1538 1537 1537 1537 1536 1536 1536 1536 1536 1536 1536 1537 1537 1537 1537 1537 1537 1537 1537 1537 1537 1537 1537 1537 1537 1537 1537 1537 1537 1536 1536 1535
1553 1553 1553 1553 1553 1553 1552 1552 1552 1551 1551 1551 1550 1550 1550 1549 1549 1548 1548 1546 1545 1545 1545 1546 1546 1545 1545 1544 1544 1544 1544 1544 1544 1544 1544 1544 1544 1544 1543 1543 1543 1543 1542 1542 1541 1541 1541 1540 1540 1539 1539 1539 1538 1538 1537 1537 1537 1537 1536 1536 1537 1537 1537 1537 1537 1537 1538 1538 1538 1538 1538 1538 1538 1538 1538 1538 1538 1538 1537 1537 1537 1537 1536 1536 1535
1553 1553 1553 1553 1553 1553 1553 1553 1552 1552 1552 1551 1551 1550 1550 1550 1549 1549 1548 1547 1546 1546 1546 1546 1546 1546 1546 1546 1545 1545 1545 1545 1545 1545 1545 1544 1544 1544 1544 1543 1543 1543 1542 1542 1542 1541 1540 1540 1540 1539 1539 1539 1538 1538 1537 1537 1537 1537 1537 1537 1537 1537 1537 1537 1538 1538 1538 1538 1538 1538 1538 1538 1538 1538 1538 1538 1538 1538 1537 1537 1537 1537 1536 1536 1535
1552 1552 1553 1553 1553 1553 1553 1553 1553 1553 1552 1552 1551 1551 1550 1550 1549 1549 1549 1548 1547 1547 1546 1546 1546 1546 1546 1546 1546 1546 1546 1546 1545 1545 1545 1545 1544 1544 1543 1543 1543 1542 1542 1542 1541 1541 1540 1540 1539 1539 1539 1538 1538 1537 1537 1537 1537 1537 1537 1537 1537 1537 1537 1538 1538 1538 1538 1538 1538 1538 1538 1538 1538 1538 1538 1538 1537 1537 1537 1537 1537 1536 1536 1535 1535
1552 1552 1553 1553 1553 1553 1553 1553 1553 1553 1552 1552 1551 1551 1550 1550 1549 1549 1549 1548 1548 1548 1547 1547 1546 1546 1546 1546 1546 1546 1546 1546 1546 1545 1545 1545 1544 1544 1543 1543 1542 1542 1541 1541 1541 1540 1540 1540 1539 1539 1538 1538 1537 1537 1537 1537 1537 1537 1537 1537 1537 1537 1537 1537 1537 1537 1538 1538 1538 1538 1538 1537 1537 1537 1537 1537 1537 1537 1537 1536 1536 1536 1535 1535 1534
1552 1552 1553 1553 1553 1553 1553 1553 1553 1553 1552 1551 1551 1551 1550 1550 1549 1549 1548 1548 1548 1548 1548 1547 1546 1546 1546 1546 1546 1546 1546 1546 1546 1546 1545 1545 1545 1544 1543 1543 1542 1542 1541 1541 1540 1540 1540 1540 1539 1539 1538 1537 1537 1537 1537 1537 1537 1537 1537 1537 1536 1536 1536 1536 1536 1537 1537 1537 1537 1537 1537 1537 1537 1537 1537 1537 1536 1536 1536 1536 1535 1535 1534 1534 1534
1553 1553 1553 1553 1553 1553 1553 1552 1552 1552 1552 1551 1551 1550 1550 1550 1549 1549 1548 1548 1548 1548 1547 1547 1546 1546 1546 1545 1545 1546 1546 1546 1546 1545 1545 1545 1544 1544 1543 1543 1542 1542 1541 1541 1540 1540 1539 1539 1539 1538 1537 1537 1537 1537 1537 1537 1537 1537 1536 1536 1536 1536 1536 1536 1536 1536 1536 1536 1536 1536 1536 1536 1536 1536 1536 1536 1535 1535 1535 1535 1534 1534 1534 1533 1533
1553 1553 1553 1553 1552 1552 1552 1552 1552 1551 1551 1551 1550 1550 1550 1549 1549 1548 1548 1548 1547 1547 1547 1546 1546 1546 1545 1545 1545 1545 1545 1545 1545 1545 1545 1544 1544 1544 1543 1543 1542 1541 1541 1541 1540 1539 1539 1538 1538 1537 1537 1537 1537 1537 1537 1537 1537 1536 1536 1536 1536 1535 1535 1535 1535 1535 1535 1535 1535 1535 1535 1535 1535 1535 1535 1534 1534 1534 1534 1534 1533 1533 1533 1532 1532
1552 1552 1552 1552 1552 1552 1551 1551 1551 1551 1550 1550 1550 1549 1549 1548 1548 1548 1547 1547 1547 1546 1546 1546 1545 1545 1545 1545 1544 1544 1544 1544 1544 1544 1544 1544 1543 1543 1543 1542 1542 1541 1541 1540 1540 1539 1538 1538 1537 1537 1537 1537 1537 1537 1537 1537 1537 1536 1536 1536 1536 1535 1535 1535 1535 1535 1535 1535 1535 1535 1534 1534 1534 1534 1534 1533 1533 1533 1533 1532 1532 1532 1532 1532 1532
Wind_Speed
18 20 21 21 22 21 20 19 19 19 18 16 17 19 20 20 21 21 20 20 20 20 19 18 18 18 18 17 16 16 15 15 14 14 12 11 10 12 13 13 13 12 12 11 11 11 11 10 10 10 11 11 11 11 10 9 9 8 8 10 10 9 8 7 6 4 4 6 7 5 5 5 5 6 6 6 7 7 7 7 7 7 7 7 8
15 16 17 19 21 21 20 19 18 18 17 17 18 20 20 20 21 22 21 19 18 18 18 18 18 18 17 16 16 16 16 15 14 14 13 11 11 12 13 13 12 11 11 10 10 10 10 10 9 9 10 10 11 10 10 9 9 10 9 9 9 9 8 7 7 6 5 5 6 4 4 5 6 6 6 7 7 7 7 7 7 8 8 9 10
13 12 13 16 19 19 18 17 17 16 16 17 19 20 20 20 21 22 21 19 17 17 17 17 17 17 17 18 18 17 17 16 15 14 13 12 12 13 13 13 12 11 9 9 8 9 10 9 9 9 9 10 11 10 10 9 9 9 8 9 9 9 8 8 9 9 9 7 6 5 5 5 6 6 6 7 8 9 8 8 8 9 9 10 11
14 13 12 13 14 15 13 13 14 15 15 17 19 20 20 20 21 21 20 18 17 17 17 17 17 17 18 18 19 19 18 16 14 13 13 14 14 14 14 13 12 10 8 7 7 7 8 8 9 9 10 11 11 10 10 9 7 7 7 8 9 8 8 9 10 12 13 12 10 8 7 7 7 7 7 7 8 9 9 9 9 9 9 10 11
13 13 14 13 11 11 10 10 12 15 15 16 18 20 21 20 21 20 20 19 17 17 18 19 17 17 17 18 19 18 17 16 14 14 14 15 15 14 13 12 11 10 7 5 5 7 8 8 9 10 11 11 10 9 9 8 5 6 8 9 9 9 10 11 13 14 14 15 14 11 9 9 9 8 8 7 8 8 8 8 9 9 9 10 11
13 13 14 13 11 11 10 11 13 16 16 16 17 19 21 21 22 21 20 17 16 17 19 19 17 16 18 19 18 18 18 16 14 13 14 15 14 13 12 11 10 9 7 5 6 8 9 9 10 11 10 9 8 7 8 7 7 8 9 10 10 11 12 13 14 14 14 16 16 13 10 9 9 9 9 8 9 10 9 8 8 9 9 10 10
13 13 13 12 10 12 13 13 15 16 16 16 17 19 20 20 21 21 19 17 16 18 19 18 17 18 21 21 19 18 18 16 15 14 14 13 13 12 12 12 11 9 7 7 8 9 9 10 11 11 9 8 8 8 7 7 8 8 8 8 9 10 11 12 13 14 14 16 16 14 11 10 10 10 10 9 10 12 11 11 11 10 11 12 12
13 14 14 13 11 12 14 15 16 15 16 17 19 20 20 18 17 18 19 18 17 18 18 17 20 23 25 23 21 19 18 18 17 16 14 13 12 13 13 12 12 10 9 9 9 9 10 11 11 11 9 8 8 7 7 6 6 6 6 7 6 6 7 8 10 13 14 15 15 13 12 11 11 12 12 13 13 13 12 13 13 13 14 15 15
14 14 14 14 13 12 13 15 17 17 16 18 19 19 20 18 15 17 19 18 17 17 17 18 22 25 25 24 22 21 19 19 19 17 16 15 13 12 13 14 13 11 10 10 10 9 10 10 10 10 8 7 6 6 6 5 5 5 5 6 6 6 5 6 7 9 10 12 13 14 14 13 13 14 15 15 15 14 14 16 16 16 17 19 19
13 11 11 12 12 12 12 13 17 19 18 18 19 19 20 20 18 19 21 19 18 20 19 18 20 21 24 25 23 21 20 19 18 18 17 17 14 12 13 15 14 11 10 11 11 10 10 10 10 8 6 5 4 4 4 4 4 4 4 5 6 7 7 7 7 8 9 11 13 16 17 16 16 17 18 17 18 18 19 20 21 20 21 23 23
15 10 8 8 8 9 10 10 15 20 19 19 20 19 19 20 20 22 23 21 21 21 19 18 19 18 21 23 22 21 20 16 16 19 19 17 14 12 14 16 15 12 11 11 11 10 10 10 9 7 5 4 3 3 3 4 5 6 6 6 7 7 8 9 10 11 12 13 15 16 16 16 17 18 19 19 21 22 23 24 25 25 26 27 28
15 12 9 7 6 6 8 8 12 18 20 19 20 19 18 20 21 24 25 23 21 22 20 19 19 18 19 20 20 20 18 15 17 20 19 16 14 13 14 15 14 13 13 12 11 11 10 9 8 6 5 4 4 4 4 4 6 7 7 7 8 8 8 9 11 12 13 14 15 15 15 15 15 16 17 18 20 22 23 25 26 27 27 28 29
11 10 9 6 6 8 7 7 11 17 20 20 21 21 21 22 21 23 25 24 22 22 21 19 19 19 19 18 18 19 17 16 17 18 17 15 14 14 15 15 15 15 15 14 13 13 11 9 7 6 5 5 6 7 7 7 7 8 9 9 10 11 11 11 12 12 13 13 14 15 15 15 16 16 17 16 16 17 20 22 24 26 26 27 28
11 9 9 7 4 11 12 10 12 17 20 22 23 24 24 23 23 24 26 25 24 22 21 20 20 20 20 19 18 18 17 16 16 16 16 16 15 15 16 16 16 17 16 16 14 12 11 9 6 5 4 5 5 6 7 7 8 9 10 11 11 12 12 13 13 14 13 14 13 13 13 13 13 14 14 14 13 14 17 20 22 24 25 26 27
12 11 10 8 3 5 8 10 12 16 19 22 23 24 24 23 24 27 27 25 25 23 20 19 19 20 21 20 19 18 18 17 16 16 16 16 16 16 16 15 16 16 15 12 9 7 7 5 2 2 3 3 4 5 6 7 9 10 10 11 11 12 12 13 14 14 14 13 12 11 11 11 11 12 13 13 13 14 17 19 21 23 23 24 26
13 13 11 11 8 4 1 6 10 15 18 20 20 21 23 23 24 26 29 27 25 23 20 19 20 21 22 21 20 19 19 19 19 18 18 17 16 16 17 17 16 13 10 8 6 5 4 3 1 4 5 5 6 7 9 10 11 11 11 11 11 12 12 13 13 13 12 12 12 11 11 12 13 14 15 15 14 15 17 19 20 21 20 21 23
17 15 13 13 11 7 3 5 8 11 14 19 20 19 21 24 23 22 26 28 26 24 22 20 22 22 22 22 21 21 21 21 21 20 19 18 18 17 18 18 15 10 7 6 4 3 3 3 4 6 9 10 11 12 12 13 13 13 12 12 12 13 13 14 14 15 14 14 13 13 13 14 15 15 16 16 15 15 16 17 18 18 17 19 20
17 16 15 13 11 8 6 6 8 9 11 17 20 17 17 20 19 19 24 27 27 26 25 25 24 23 22 21 20 21 22 21 21 21 19 19 19 19 19 17 13 10 8 6 6 7 7 8 10 13 16 16 15 15 15 14 15 15 14 13 13 14 14 15 15 16 16 16 16 16 16 16 15 14 14 14 14 14 14 14 15 15 15 15 16
17 16 15 13 10 8 8 8 9 12 13 16 20 19 17 18 19 19 21 24 27 27 26 25 24 23 20 17 15 16 15 13 15 17 17 17 17 17 17 15 12 10 9 8 9 9 9 13 16 18 18 17 16 16 16 16 16 16 16 15 15 15 14 14 14 15 15 16 16 15 15 15 13 12 12 13 13 13 13 13 12 13 13 13 13
16 15 14 13 12 9 7 8 10 12 14 17 22 24 22 22 21 19 18 19 21 18 14 13 14 15 14 10 8 9 8 6 7 9 10 11 12 12 12 12 11 11 11 12 12 12 13 15 16 16 15 15 14 15 16 16 16 15 14 15 15 14 13 13 13 12 13 13 12 12 12 12 12 12 12 13 14 14 14 13 12 12 12 12 12
14 13 12 12 12 11 8 6 7 9 11 13 17 21 22 20 17 14 11 10 11 8 5 5 5 6 6 5 5 7 7 6 7 7 7 9 11 10 10 11 11 12 13 13 13 13 13 13 13 13 13 14 14 14 13 13 12 12 11 10 10 10 10 10 10 10 11 12 12 13 14 15 16 16 16 16 16 15 15 14 14 14 12 11 11
14 12 12 11 11 10 9 7 5 5 6 8 10 13 16 16 15 13 11 9 9 11 12 12 12 12 11 9 7 9 9 8 9 9 9 10 10 10 11 11 11 11 11 11 11 10 11 11 11 12 12 12 11 10 9 9 9 9 9 8 9 9 10 11 12 13 14 15 16 16 17 18 18 18 17 17 16 16 16 16 16 14 12 11 10
13 12 12 12 12 10 9 8 6 4 4 4 5 9 12 14 16 17 16 14 14 14 13 11 10 12 13 11 11 11 11 11 12 11 10 10 10 10 10 10 10 10 10 10 10 10 10 10 10 9 9 8 7 7 7 8 8 8 9 10 12 13 13 14 14 14 14 15 16 16 16 17 17 16 16 15 15 15 15 15 14 12 11 11 12
10 11 12 12 12 12 11 9 7 6 5 4 4 7 11 13 14 16 15 14 13 13 12 11 10 10 11 11 11 10 10 10 10 10 9 9 9 9 10 10 10 9 9 9 8 8 8 8 8 7 7 7 8 9 9 10 10 11 11 12 12 12 12 12 12 12 12 13 13 13 13 14 14 14 14 13 12 11 11 10 10 10 11 13 13
8 9 10 11 12 12 11 10 9 9 8 8 8 9 10 11 12 13 14 13 13 12 11 11 10 11 11 12 11 10 10 9 8 8 7 8 8 8 8 8 8 8 8 7 7 8 8 8 8 8 9 10 10 10 10 10 10 9 9 9 9 9 9 9 10 11 11 11 11 11 12 12 12 12 11 10 9 7 7 7 8 9 10 11 12
10 9 10 11 11 10 10 10 9 9 9 9 10 10 9 9 9 10 10 10 10 10 10 9 9 9 9 9 8 8 7 6 7 7 7 7 6 6 6 7 7 7 7 8 8 8 8 9 9 9 10 10 9 9 8 8 7 7 7 7 8 8 8 9 10 10 10 11 11 12 13 12 12 11 10 8 6 5 5 6 7 8 9 9 11
14 13 12 11 10 10 10 10 9 9 9 9 9 10 9 9 9 9 9 8 8 9 9 9 8 7 7 7 6 5 3 2 1 2 4 4 4 4 5 5 6 6 6 6 7 7 7 8 8 8 8 8 7 7 7 7 7 7 7 7 7 8 9 10 11 12 12 13 14 14 14 12 11 11 10 9 6 5 5 5 6 8 8 9 10
14 15 15 14 12 11 9 9 8 8 8 7 7 8 8 7 7 8 9 8 7 6 6 5 5 4 4 4 4 3 3 2 2 2 2 2 1 1 1 2 3 3 4 4 4 5 5 6 6 7 7 7 7 7 7 6 6 5 5 6 8 9 10 11 12 13 13 14 14 13 12 11 10 10 10 9 7 5 5 5 5 6 6 7 7
14 15 16 16 15 14 11 10 8 7 6 4 4 5 6 6 5 5 5 5 4 2 2 1 1 2 3 3 3 3 2 2 2 2 3 2 1 1 1 1 2 2 3 3 4 4 6 6 7 8 8 7 7 6 5 5 4 4 5 6 8 9 10 11 12 12 13 13 12 10 9 8 8 8 7 6 4 4 4 5 6 6 7 7 8
12 14 15 15 16 15 14 13 12 10 9 7 5 5 6 7 6 4 3 2 1 1 2 2 3 3 3 3 3 2 1 2 2 3 3 2 1 1 2 2 2 2 2 2 3 4 5 6 7 7 6 5 5 5 4 4 4 5 6 7 8 10 11 11 11 11 11 10 8 7 7 6 5 5 4 4 3 3 4 5 6 6 7 7 8
10 12 13 14 15 14 13 13 12 12 12 11 10 8 8 8 8 7 6 5 4 3 3 3 3 2 2 2 2 2 2 3 3 3 3 3 3 3 3 2 2 1 2 2 2 4 5 5 5 5 5 4 4 4 5 5 6 6 8 9 11 11 11 10 9 9 8 7 7 6 6 5 4 3 3 3 3 4 5 5 5 6 7 7 7
10 11 12 13 13 13 12 11 10 10 11 11 11 10 9 8 7 7 8 8 8 8 7 7 6 5 4 3 3 3 2 1 2 3 4 4 4 3 2 1 1 0 1 2 2 4 5 5 5 5 5 5 6 6 7 8 9 9 10 9 9 9 8 7 6 6 6 5 6 5 4 4 4 3 2 3 3 4 4 5 5 7 7 7 7
10 11 11 11 12 11 10 8 8 8 9 9 10 10 9 9 8 8 9 9 10 10 9 8 7 6 6 5 5 4 3 2 2 3 4 4 3 1 0 2 2 2 2 2 3 4 5 5 6 5 5 6 6 7 7 7 6 6 6 5 5 5 4 4 3 3 4 4 5 4 3 4 4 3 2 2 3 3 3 4 5 6 7 7 7
10 11 11 10 10 9 8 7 7 7 7 8 9 9 9 9 8 8 8 9 9 9 9 8 7 6 6 6 5 5 4 5 6 5 3 2 2 1 1 3 4 6 5 3 3 3 3 3 3 2 2 2 2 2 2 3 3 3 3 3 2 2 2 2 2 2 3 3 4 4 3 3 3 3 2 3 3 4 5 5 6 6 7 7 8
10 10 10 9 8 8 7 7 7 7 7 9 10 10 9 8 7 7 7 8 9 10 9 8 6 5 5 5 6 5 4 5 7 6 5 4 3 2 1 3 6 7 6 2 2 3 3 3 3 3 3 2 2 2 2 2 2 2 2 3 3 3 2 2 2 1 1 2 2 2 2 3 4 5 5 6 6 7 7 7 7 7 7 7 6
9 10 10 9 7 7 7 7 7 7 8 9 9 9 8 7 7 7 8 9 10 10 8 6 5 4 5 5 6 6 4 2 3 4 4 4 3 2 1 4 6 6 3 4 6 7 7 7 7 7 6 5 4 3 3 3 2 3 3 3 3 3 3 3 2 2 3 3 4 5 7 7 8 9 9 9 9 9 8 7 7 7 6 5 4
8 9 10 8 6 5 6 6 7 7 8 8 7 7 7 7 8 8 9 10 10 8 6 4 3 4 5 6 7 7 4 0 2 2 2 1 1 1 3 5 5 2 4 7 9 9 9 9 9 8 8 7 7 6 6 5 4 4 4 5 5 6 6 6 6 7 7 7 8 10 11 10 11 11 11 10 10 8 7 6 5 4 4 3 3
7 8 8 7 6 5 6 7 7 8 7 7 6 7 7 8 9 10 11 10 10 7 5 3 3 4 6 7 8 7 5 2 1 3 4 4 3 3 3 2 2 6 9 11 11 11 10 10 10 10 10 9 9 8 7 7 6 7 7 7 7 7 7 8 9 9 10 10 11 12 11 11 11 11 10 10 9 7 6 5 4 4 4 4 4
5 6 6 5 4 5 6 8 8 8 8 7 7 7 8 8 10 11 11 10 8 5 4 3 3 4 7 9 10 10 8 4 1 1 3 3 2 3 4 7 9 10 11 12 12 11 11 11 12 11 11 10 9 8 8 8 9 10 9 8 8 8 9 10 10 10 10 10 11 11 11 11 11 10 9 7 7 6 4 3 3 4 5 5 4
6 6 6 6 5 6 7 9 9 8 8 7 7 7 8 9 11 11 11 9 6 3 2 2 3 5 7 9 11 12 8 2 2 3 5 7 9 10 10 10 10 10 11 11 11 11 11 11 11 11 10 9 10 9 9 9 10 10 9 9 9 10 10 11 10 10 10 10 10 10 10 9 8 7 6 4 4 3 2 2 3 5 6 7 7
5 5 6 7 8 8 9 10 10 9 7 6 6 7 7 9 10 11 10 9 5 2 1 1 2 5 6 7 10 10 6 4 8 10 11 12 12 11 10 10 9 9 9 9 9 9 9 9 10 10 9 10 10 10 9 9 9 9 8 8 9 9 9 10 9 9 9 9 9 8 8 7 6 5 3 2 2 1 1 2 4 5 6 7 7
5 4 5 6 7 8 10 11 10 8 5 4 5 5 6 8 9 10 10 9 7 3 0 1 2 4 6 6 8 8 5 7 10 11 11 10 9 8 8 8 7 7 7 6 6 7 7 8 8 8 8 9 9 10 9 9 8 7 7 6 6 7 8 9 9 8 7 6 6 6 6 6 5 4 3 3 2 1 1 2 3 4 5 6 7
4 4 5 5 5 6 9 10 10 7 4 3 5 6 6 8 9 9 10 11 8 4 1 1 3 5 7 7 8 7 5 7 9 9 8 8 7 6 6 6 6 5 5 5 4 5 6 6 6 6 6 7 7 7 8 7 7 7 6 4 4 5 6 8 7 6 5 5 5 5 5 5 4 4 5 5 3 1 1 2 3 4 6 6 7
5 4 4 5 5 5 6 7 7 5 4 5 6 8 8 9 8 8 9 11 9 5 3 1 2 4 6 7 8 7 5 5 6 6 6 6 5 4 4 4 4 4 4 3 3 3 4 4 5 4 5 5 5 5 5 5 5 5 5 4 3 3 4 5 6 4 3 3 3 3 4 4 4 4 5 5 3 1 2 3 4 6 6 7 7
6 4 3 4 5 5 4 5 5 4 4 5 6 8 9 8 6 6 7 9 8 5 4 3 1 1 3 4 6 6 5 4 3 3 3 4 3 3 3 3 3 4 3 3 4 3 3 3 3 3 4 4 4 4 4 4 3 3 3 3 2 2 2 3 3 2 1 2 3 3 3 3 4 4 5 5 4 3 3 4 4 5 6 7 8
7 6 4 5 6 4 3 4 5 5 5 5 7 8 9 8 5 4 5 7 6 4 4 5 4 2 1 1 2 2 2 3 3 3 3 3 3 3 4 4 4 4 5 5 5 4 3 3 3 3 3 3 3 3 3 3 2 2 2 1 0 0 1 1 1 1 2 2 3 3 3 3 3 3 4 5 5 5 5 5 5 5 6 6 8
5 5 5 5 6 4 3 5 7 6 6 7 7 7 8 8 5 4 5 6 5 5 5 6 6 5 4 3 2 2 2 2 2 2 3 4 4 5 5 6 6 6 5 5 5 4 3 3 3 3 3 3 3 3 3 3 3 3 2 1 1 2 2 3 3 3 3 3 3 3 4 4 4 5 5 5 5 6 6 6 6 7 7 8 8
2 3 4 4 5 5 5 6 8 7 7 7 6 6 7 8 7 5 5 6 6 6 6 7 7 7 7 6 4 4 3 3 2 2 2 3 4 6 7 7 7 6 5 5 5 5 4 4 4 4 4 3 2 2 3 3 3 3 2 2 2 2 3 3 4 4 4 4 4 4 5 5 6 6 6 6 6 7 7 7 8 8 9 9 9
2 3 3 4 5 6 7 8 8 8 8 7 6 6 7 7 7 7 7 7 7 8 8 8 8 8 8 7 7 6 5 4 3 3 2 2 3 5 7 8 8 7 5 5 5 5 5 5 5 4 3 1 1 2 2 2 3 3 3 3 2 1 1 2 3 3 3 3 4 4 5 6 6 6 6 6 7 7 7 7 8 8 8 7 8
2 3 4 6 7 7 8 8 8 8 8 6 6 7 8 7 7 6 6 7 7 8 9 9 9 8 9 9 9 8 7 6 6 5 5 4 4 5 6 8 9 8 6 6 6 6 7 7 6 4 2 0 1 1 2 2 2 3 3 3 2 2 1 1 1 1 1 2 2 3 4 5 5 6 6 6 6 6 6 6 6 7 6 6 7
4 5 6 7 8 8 7 7 8 9 8 7 7 7 8 9 8 8 8 7 8 9 10 10 10 9 8 9 10 9 8 8 8 6 5 5 5 5 5 7 8 8 7 7 7 8 8 8 7 4 1 0 1 1 2 2 3 2 2 2 2 2 2 2 2 2 1 1 1 2 3 3 4 4 5 5 5 5 5 5 6 6 7 6 5
Wind_Direction
253 237 229 230 228 221 221 224 220 219 217 213 213 207 199 195 193 193 191 190 191 190 191 192 192 193 194 196 198 197 197 198 198 200 202 208 207 200 199 201 203 205 207 209 206 202 202 201 200 199 199 202 209 216 218 214 214 216 216 222 232 238 241 256 270 254 206 190 188 204 220 215 216 223 229 228 224 227 230 232 237 240 243 246 245
264 240 229 227 225 223 225 224 219 216 214 210 207 204 201 198 197 196 193 191 195 195 192 193 193 193 197 201 203 203 205 207 207 208 210 210 203 195 195 195 195 197 200 202 199 195 194 195 194 191 194 201 204 213 223 220 212 213 219 225 231 237 236 241 249 247 237 218 205 213 233 230 231 242 252 247 237 236 241 246 249 251 253 254 254
275 253 234 226 225 226 225 223 220 215 211 208 205 203 203 201 198 196 192 192 197 198 197 199 198 199 204 208 210 212 213 214 212 208 204 202 196 190 187 186 186 186 188 190 190 188 187 187 188 188 194 202 206 214 223 220 206 199 211 226 230 234 235 241 250 254 260 260 251 261 276 266 251 253 261 255 242 239 243 252 259 261 263 261 255
287 277 257 242 234 231 230 231 227 220 214 210 205 203 202 199 196 192 189 192 194 192 198 206 206 210 215 215 215 215 212 208 202 195 192 192 188 183 179 177 178 176 173 179 187 185 181 180 182 187 197 206 212 217 213 203 192 192 208 222 227 234 242 250 258 262 266 270 266 269 280 278 259 250 254 249 239 237 239 245 253 258 261 262 255
305 293 277 271 259 244 245 244 229 220 221 219 211 202 197 195 193 189 189 191 187 187 199 211 214 217 215 210 206 200 193 190 185 183 185 184 180 176 174 172 173 170 167 175 184 183 181 181 185 193 201 206 208 205 197 189 193 219 230 231 234 243 251 255 261 263 264 266 268 269 272 268 256 246 247 243 231 231 235 239 245 250 253 256 255
316 301 289 289 275 255 253 245 228 220 223 227 217 203 196 194 192 190 190 188 184 192 205 212 214 209 198 190 186 182 179 179 179 181 183 182 179 178 176 175 173 169 168 174 177 179 182 183 188 194 194 187 178 173 180 193 210 225 235 240 244 251 255 255 256 259 261 263 265 268 272 271 263 251 248 244 235 236 244 248 250 253 256 259 260
308 291 288 295 279 253 246 242 234 226 224 223 214 205 201 199 196 192 188 185 189 200 209 213 205 192 183 179 179 178 178 180 182 183 183 182 185 185 182 179 176 172 175 178 177 177 181 183 185 186 177 162 160 164 172 188 202 214 225 233 239 247 251 252 251 253 258 260 260 260 266 272 269 259 253 249 246 246 249 253 256 258 262 268 272
310 292 281 281 275 257 248 243 238 232 225 218 211 204 197 195 198 195 187 189 200 207 208 202 191 183 180 179 180 181 182 182 183 183 183 185 188 186 184 183 180 178 179 177 174 173 177 180 180 177 171 164 167 169 168 175 189 203 214 218 222 229 239 248 253 256 259 259 253 249 255 262 264 261 255 248 249 252 254 258 263 266 267 270 273
316 301 287 277 271 266 258 245 235 230 224 216 207 197 188 185 192 195 191 195 203 198 188 180 179 182 183 182 183 185 185 184 185 184 184 186 187 185 188 189 185 181 177 171 169 170 172 174 173 171 169 168 173 180 182 185 193 203 213 217 219 221 228 242 253 255 256 255 249 247 253 257 257 260 260 258 261 267 266 265 270 274 273 273 273
333 309 292 282 272 267 265 248 232 226 223 215 201 190 188 189 187 189 192 194 193 185 175 169 173 181 184 184 186 187 184 186 188 187 185 185 183 180 182 184 182 177 169 162 160 163 165 167 167 164 163 166 179 200 211 217 221 226 231 230 231 237 241 241 243 246 249 251 252 253 255 256 256 259 263 267 271 273 273 273 276 279 278 276 276
354 339 308 291 276 268 266 252 231 223 219 211 199 192 194 192 187 188 190 189 188 185 180 177 175 177 182 186 188 186 185 188 187 184 184 184 180 174 171 173 173 171 166 158 155 161 167 170 173 175 181 192 203 217 232 244 248 253 260 257 252 252 253 250 249 252 252 252 254 256 256 257 258 260 264 269 271 272 273 275 277 277 276 275 276
359 354 339 304 272 257 260 252 227 218 215 207 195 188 189 188 187 190 189 185 189 190 187 185 180 175 177 181 182 183 185 188 183 180 182 181 178 176 174 172 172 172 172 167 162 164 168 173 182 190 205 225 235 239 252 265 265 264 268 269 266 263 259 256 255 256 256 255 255 257 261 265 267 269 273 277 276 273 272 272 272 273 273 273 274
7 4 358 320 246 210 220 234 212 204 207 206 195 187 188 186 187 193 191 186 191 194 189 187 183 179 178 177 178 182 184 182 181 180 180 180 180 181 176 172 171 171 174 176 174 173 171 170 181 200 224 245 252 257 268 280 281 277 274 273 271 268 265 263 261 259 258 258 257 258 261 265 268 271 277 282 280 274 271 271 271 272 272 271 273
24 21 13 351 242 193 190 200 201 198 201 203 197 193 192 186 184 192 194 189 193 197 193 190 187 186 185 182 180 182 182 179 179 179 180 181 184 183 176 171 172 172 175 177 175 176 176 173 178 200 232 252 254 256 263 271 277 279 277 275 273 271 268 265 262 259 256 255 256 257 260 264 267 272 278 284 285 280 275 273 274 274 275 276 277
37 37 32 25 10 199 191 192 199 200 199 198 196 194 191 188 189 192 191 191 197 197 195 193 190 190 189 186 183 183 181 179 176 178 184 187 189 189 186 182 182 182 182 178 166 159 166 167 175 253 273 275 270 267 267 271 276 275 272 270 269 268 267 266 264 260 255 254 252 253 258 265 270 276 281 285 284 279 274 270 269 271 275 279 281
45 47 48 48 38 15 234 193 196 198 196 192 190 189 187 192 201 196 187 189 195 195 193 191 188 189 189 186 186 185 181 178 175 176 186 194 197 198 195 192 190 184 173 161 143 134 147 164 246 278 281 282 286 287 282 281 283 277 267 263 263 262 261 262 262 259 258 259 259 261 267 272 276 279 281 282 279 273 271 270 271 274 279 285 288
45 47 50 55 55 54 86 167 184 193 194 188 189 195 194 195 204 200 186 185 187 184 183 181 177 179 180 180 183 183 179 177 176 177 182 190 197 202 200 198 198 191 171 163 176 203 241 263 270 285 295 294 292 294 289 284 285 281 270 263 262 261 257 255 257 259 263 268 270 272 278 281 282 282 281 279 277 274 274 278 283 288 294 297 297
45 46 49 55 62 71 89 127 157 172 184 182 183 196 199 191 194 196 186 179 176 172 171 171 169 169 168 168 171 174 174 173 174 176 181 186 194 202 204 207 212 210 204 217 234 241 258 278 287 294 296 289 282 282 279 275 277 277 273 270 268 265 260 255 256 258 262 267 271 277 283 285 285 286 284 281 280 281 283 288 295 299 303 304 303
39 43 47 52 58 73 92 110 131 146 156 155 152 160 173 171 172 178 173 164 161 160 158 159 160 159 160 161 162 167 173 175 177 181 187 194 203 207 207 213 222 221 222 235 242 246 264 280 282 281 280 278 273 270 266 261 261 264 267 270 272 269 267 266 265 265 266 270 274 279 283 284 286 287 286 284 285 287 290 295 300 303 306 310 310
30 35 43 52 57 66 92 114 127 136 141 135 132 138 149 153 155 161 159 154 155 149 137 139 148 151 160 173 181 184 192 204 208 209 210 218 227 221 208 212 226 229 233 241 246 253 262 267 266 265 266 269 266 261 258 256 256 258 261 265 267 268 271 273 274 273 275 277 279 281 284 288 290 291 290 289 288 286 288 291 295 300 305 309 311
31 33 40 51 59 63 71 94 126 140 145 145 142 142 146 151 158 163 159 156 161 161 166 198 206 197 202 220 214 196 192 200 221 233 233 237 246 235 214 217 229 232 236 240 241 246 249 249 252 256 259 260 258 255 256 258 259 261 262 262 262 265 272 279 282 285 287 288 291 293 294 294 295 295 293 290 288 287 287 288 291 295 302 306 308
32 35 43 49 58 67 69 72 93 128 150 162 168 165 161 165 178 188 191 191 198 211 222 229 233 234 236 235 215 198 196 203 215 223 218 218 226 221 213 221 228 228 233 238 239 244 246 246 250 253 253 253 253 254 256 256 256 260 262 265 271 277 283 288 290 291 291 292 293 294 294 294 294 295 294 291 289 287 286 288 292 297 303 309 313
32 36 46 50 53 62 69 72 78 99 133 155 183 190 182 177 183 192 201 207 209 211 212 211 210 212 212 209 203 198 198 202 210 215 211 207 209 209 211 219 225 228 236 241 242 245 245 244 246 245 244 246 249 253 258 261 266 270 273 277 283 286 290 292 293 295 295 295 296 296 296 296 295 295 296 294 291 288 286 287 292 298 304 310 315
36 40 47 52 54 56 60 66 68 77 100 118 141 164 171 172 172 177 184 189 191 190 184 180 185 188 187 190 194 194 193 198 203 204 203 205 208 210 213 220 226 232 238 239 238 239 241 243 246 249 255 264 269 273 275 276 278 281 283 286 288 291 296 300 304 308 308 306 307 307 306 305 303 300 298 295 294 295 294 294 296 300 305 310 313
38 45 48 52 55 54 56 63 63 63 72 85 97 115 136 151 156 158 162 167 173 175 172 172 180 183 183 188 193 193 194 200 202 199 199 205 209 212 215 218 222 226 227 227 231 236 243 251 258 264 270 274 276 278 278 278 280 282 285 289 293 297 305 311 315 317 317 318 322 324 325 324 320 315 310 304 302 307 313 312 308 305 305 308 311
47 51 51 53 55 54 55 60 63 64 68 75 84 92 102 114 120 124 130 134 137 139 139 141 150 157 160 166 172 177 182 191 198 201 206 210 212 215 219 221 225 227 226 230 236 241 250 258 263 267 269 269 271 273 273 274 279 284 289 295 300 306 314 321 325 327 329 334 337 340 341 340 336 334 332 326 317 316 319 317 312 309 307 308 308
48 52 55 57 59 60 61 61 62 67 69 73 83 91 95 101 106 107 106 104 105 110 115 118 122 124 125 126 127 127 124 121 162 213 224 225 218 213 215 221 230 235 236 240 245 247 252 256 258 259 259 256 254 256 261 268 275 283 293 303 312 321 328 333 336 339 341 343 344 345 346 348 349 349 349 348 343 332 322 313 305 301 301 302 304
44 48 50 53 54 57 62 65 66 69 71 71 80 90 93 98 105 108 108 105 102 102 104 104 103 99 96 91 81 72 58 22 354 318 285 276 257 225 221 226 237 240 241 247 250 249 248 247 244 241 237 237 240 246 256 266 273 285 303 316 323 328 332 335 337 339 340 341 342 344 346 348 350 352 357 3 3 350 332 318 304 299 299 302 306
42 46 46 48 50 52 57 64 66 68 69 68 77 91 95 93 88 94 104 101 87 68 47 21 0 4 13 13 10 13 2 335 304 274 275 288 322 328 305 271 258 255 244 241 242 240 236 231 229 228 228 232 239 247 256 263 271 288 305 313 318 323 326 328 330 331 332 334 337 339 340 340 341 344 351 358 355 339 321 307 302 309 314 315 318
41 44 43 43 45 46 50 57 62 65 67 69 74 90 99 96 86 82 92 95 62 338 326 326 322 330 343 339 327 307 271 254 244 252 266 278 279 274 262 248 248 243 224 219 227 233 232 227 225 226 229 234 241 249 253 259 271 286 296 304 309 312 313 314 317 320 324 326 329 331 329 329 333 338 345 351 352 349 336 315 307 314 321 325 328
47 47 42 39 38 37 40 48 54 60 63 64 63 67 75 82 85 83 80 77 75 65 45 30 17 2 340 311 289 271 251 241 240 248 256 252 242 238 232 220 207 195 193 204 222 231 232 229 226 225 226 233 246 253 256 262 273 281 288 293 296 297 301 304 308 313 316 319 326 331 327 326 332 340 352 359 1 2 354 339 326 323 324 322 320
53 52 45 39 36 33 34 38 42 47 53 54 54 53 51 53 62 66 62 55 51 49 45 40 31 17 359 344 334 331 327 258 213 219 224 226 225 220 211 184 143 187 216 218 225 232 232 231 231 233 238 248 257 261 264 269 275 279 285 291 294 297 301 301 300 304 308 318 332 338 334 333 338 347 4 12 20 21 3 343 332 331 331 327 322
49 46 39 34 33 33 35 36 37 41 47 48 47 45 40 39 43 49 50 47 42 38 34 31 27 17 4 358 357 1 14 49 118 166 191 206 210 208 43 42 42 21 345 285 253 246 244 245 247 247 253 259 262 266 272 278 285 292 299 304 307 305 303 297 296 299 302 318 340 351 352 348 352 4 22 26 38 34 1 338 336 341 343 342 339
38 35 31 27 29 36 42 44 42 42 42 40 37 33 30 32 37 40 41 39 34 29 23 19 21 21 14 8 11 21 45 76 93 110 139 170 180 175 19 23 17 4 350 324 270 242 233 237 241 239 252 271 277 295 320 328 327 327 328 332 336 336 331 334 334 326 320 331 350 1 0 358 16 52 61 46 37 18 358 354 356 354 351 349 347
37 38 35 30 30 40 48 48 46 40 32 28 28 26 26 30 33 32 29 25 21 17 11 5 9 22 27 28 31 34 53 85 96 104 115 127 135 130 53 359 348 347 354 26 99 115 119 113 104 101 90 70 56 42 29 19 7 14 41 48 43 42 36 15 352 341 354 7 20 27 32 46 66 69 56 41 32 22 14 11 6 359 355 354 355
46 47 42 35 33 41 47 44 37 27 18 17 21 24 29 36 33 22 14 10 9 9 3 355 4 20 24 25 29 30 36 79 113 119 123 126 131 125 28 337 333 339 12 96 104 103 105 103 97 94 92 87 85 90 90 85 78 70 61 56 64 79 80 76 88 104 104 99 89 78 73 73 71 66 56 46 38 29 25 20 11 5 6 6 7
56 52 46 38 29 27 30 29 23 15 11 13 17 20 26 31 24 10 3 1 5 10 11 9 22 29 16 8 14 21 28 46 217 215 206 207 229 291 317 322 330 2 117 120 112 107 106 102 96 94 91 87 87 89 87 81 75 72 72 79 89 93 92 96 103 108 109 106 97 89 85 80 75 69 61 52 42 33 26 23 18 14 11 2 2
52 47 44 39 32 28 26 25 23 20 17 16 16 16 18 16 10 5 2 2 8 19 31 40 37 23 9 6 13 22 29 38 207 225 231 240 259 283 296 308 113 122 120 114 109 105 102 96 90 85 81 79 79 80 77 76 81 84 85 89 93 94 99 107 113 115 114 111 103 96 90 83 77 71 63 52 42 35 30 30 27 18 3 346 342
45 39 37 36 39 37 30 26 25 23 19 17 16 13 10 12 14 12 9 6 8 18 34 37 26 17 15 18 20 19 14 9 353 226 221 208 175 137 128 126 123 120 115 110 106 100 92 85 79 75 73 74 75 76 76 81 89 91 86 87 99 109 110 109 110 110 108 104 97 89 84 81 77 72 66 55 43 38 44 49 38 23 13 7 4
51 47 40 37 33 24 19 21 23 20 16 15 17 17 21 28 29 22 11 2 355 1 26 22 9 18 26 27 22 15 9 8 122 119 122 124 123 125 125 123 121 118 113 108 101 91 83 77 71 67 69 73 75 78 82 89 96 96 90 92 107 117 115 108 102 95 88 80 73 69 69 71 73 73 73 63 49 48 60 46 16 13 16 22 27
25 32 37 36 30 22 18 18 14 7 0 359 4 14 29 37 33 21 8 356 339 331 43 31 7 22 31 27 20 19 32 106 120 118 122 124 124 127 125 119 117 116 111 106 99 87 77 70 63 61 64 69 72 76 83 91 100 101 96 97 107 114 111 104 95 84 75 67 59 52 49 49 52 58 61 47 36 41 18 351 1 10 17 24 27
349 2 16 22 24 23 20 15 7 356 340 330 343 359 20 31 26 16 6 353 333 313 66 83 42 35 34 28 24 29 65 117 118 115 120 122 121 122 121 114 113 112 107 104 97 82 67 58 54 55 60 66 70 73 78 85 95 99 95 93 97 99 99 95 86 73 61 51 41 36 34 28 20 13 1 349 342 328 326 358 13 14 15 16 13
322 330 337 345 355 6 12 14 11 4 348 337 341 348 359 11 15 10 3 354 340 316 277 121 72 50 40 40 41 46 76 112 112 107 109 111 112 114 116 113 111 106 98 88 77 65 56 49 45 49 59 66 69 72 76 79 84 88 88 86 80 76 85 94 93 76 48 35 34 38 39 28 14 6 359 357 356 343 345 8 8 1 359 359 358
299 300 308 317 325 344 8 19 18 11 3 354 348 343 346 356 2 1 359 358 353 332 289 249 82 56 43 47 57 66 83 101 102 97 96 98 97 95 100 102 96 87 78 63 47 39 36 34 36 46 62 67 64 67 72 75 78 81 83 81 73 62 69 89 100 94 54 32 31 32 27 21 17 10 2 2 3 335 313 335 344 345 348 349 350
279 278 285 297 306 323 0 17 8 358 354 348 343 341 342 348 355 356 355 358 358 340 292 279 311 37 44 52 64 75 83 86 86 80 73 69 64 60 64 65 58 49 36 20 11 8 11 20 34 50 61 61 55 53 58 63 67 72 75 76 78 75 73 88 104 109 23 352 354 358 359 1 4 357 346 341 335 319 315 326 335 339 341 342 344
261 256 257 274 289 302 325 332 328 332 339 336 333 338 343 344 343 348 353 356 356 335 298 292 300 305 308 30 48 54 56 61 68 67 56 50 49 47 45 39 31 22 11 5 9 16 19 26 38 43 40 35 31 33 43 52 53 53 51 45 47 218 218 213 229 256 280 296 313 323 318 314 323 326 320 316 313 311 314 320 323 327 329 329 333
256 247 249 264 278 284 295 304 305 311 321 316 307 314 332 339 338 334 338 342 344 335 313 300 296 288 278 280 290 304 332 7 37 57 64 67 65 56 50 40 28 18 11 9 13 17 17 17 21 18 11 9 18 33 46 52 51 45 32 357 300 268 259 256 257 264 270 275 284 291 290 288 291 291 292 294 294 295 303 308 308 310 312 313 318
287 254 252 265 276 279 283 288 289 295 308 310 299 297 316 331 336 328 320 329 343 344 332 316 303 290 280 273 271 281 306 329 345 13 57 73 61 45 39 36 29 20 9 0 356 354 354 355 355 353 352 1 33 53 56 52 49 42 29 11 333 290 272 265 263 265 268 269 273 277 278 280 283 285 286 287 286 288 294 297 298 301 304 305 310
315 277 260 262 272 280 283 284 288 299 313 322 323 316 315 325 333 326 314 317 330 334 329 322 309 293 283 274 267 270 282 293 301 314 333 355 9 14 20 23 21 16 7 355 347 342 340 340 343 345 348 13 59 58 49 40 33 26 22 17 6 343 301 273 264 264 266 268 272 277 281 285 290 292 292 291 291 292 295 296 298 302 304 305 312
281 270 260 258 264 271 277 283 294 304 307 309 313 312 311 316 323 321 313 310 311 313 318 319 310 295 285 276 268 266 269 271 276 291 306 316 324 335 351 2 6 5 359 353 347 341 336 334 333 335 344 41 60 26 13 4 359 4 13 19 19 23 33 29 354 317 298 294 294 296 297 299 302 302 302 303 301 299 300 299 297 296 297 302 312
270 259 258 260 265 272 281 291 300 303 299 295 295 295 295 298 302 304 309 309 300 295 299 305 302 294 281 270 265 262 259 258 265 281 297 309 313 314 324 342 352 356 354 350 346 339 332 326 320 313 295 242 293 322 328 329 332 342 0 19 28 44 61 67 68 67 52 21 352 333 324 322 317 312 310 310 308 305 305 301 294 290 291 295 299